H1 CPF 2 NER 2021 3 7 9 066 01 glonass128 H2 1106401 9128 37867 2021 3 7 0 0 0 2021 3 10 23 45 0 900 1 1 0 0 0 1 H9 10 0 59280 0.00000 0 -21096086.814 13340847.728 5168037.090 10 0 59280 900.00000 0 -21413256.414 13671948.171 1993226.168 10 0 59280 1800.00000 0 -21373754.585 13813404.958 -1220413.126 10 0 59280 2700.00000 0 -21005947.282 13717870.334 -4410254.397 10 0 59280 3600.00000 0 -20348929.511 13346058.365 -7514060.109 10 0 59280 4500.00000 0 -19450758.324 12668648.063 -10471213.856 10 0 59280 5400.00000 0 -18366319.919 11667776.208 -13223924.748 10 0 59280 6300.00000 0 -17154921.774 10338053.343 -15718378.242 10 0 59280 7200.00000 0 -15877713.093 8687057.237 -17905808.656 10 0 59280 8100.00000 0 -14595044.464 6735280.619 -19743470.445 10 0 59280 9000.00000 0 -13363880.312 4515533.672 -21195487.616 10 0 59280 9900.00000 0 -12235375.335 2071825.572 -22233563.424 10 0 59280 10800.00000 0 -11252718.765 -542228.199 -22837535.862 10 0 59280 11700.00000 0 -10449338.298 -3265405.612 -22995767.961 10 0 59280 12600.00000 0 -9847539.713 -6031200.292 -22705365.615 10 0 59280 13500.00000 0 -9457638.947 -8770368.069 -21972219.555 10 0 59280 14400.00000 0 -9277621.929 -11413590.520 -20810871.775 10 0 59280 15300.00000 0 -9293344.605 -13894143.507 -19244210.473 10 0 59280 16200.00000 0 -9479262.364 -16150459.126 -17303001.040 10 0 59280 17100.00000 0 -9799655.492 -18128474.497 -15025263.838 10 0 59280 18000.00000 0 -10210296.370 -19783670.306 -12455512.553 10 0 59280 18900.00000 0 -10660485.678 -21082715.672 -9643869.457 10 0 59280 19800.00000 0 -11095369.661 -22004652.928 -6645076.086 10 0 59280 20700.00000 0 -11458439.235 -22541575.404 -3517419.733 10 0 59280 21600.00000 0 -11694104.603 -22698772.938 -321597.354 10 0 59280 22500.00000 0 -11750236.593 -22494341.968 2880460.655 10 0 59280 23400.00000 0 -11580567.965 -21958279.342 6026783.944 10 0 59280 24300.00000 0 -11146854.355 -21131100.150 9056550.286 10 0 59280 25200.00000 0 -10420705.079 -20062039.175 11911246.170 10 0 59280 26100.00000 0 -9385008.056 -18806912.218 14535778.667 10 0 59280 27000.00000 0 -8034890.128 -17425726.963 16879518.781 10 0 59280 27900.00000 0 -6378173.166 -15980142.646 18897258.017 10 0 59280 28800.00000 0 -4435307.047 -14530883.439 20550061.643 10 0 59280 29700.00000 0 -2238781.637 -13135211.782 21806004.146 10 0 59280 30600.00000 0 167959.093 -11844565.119 22640774.387 10 0 59280 31500.00000 0 2732057.685 -10702452.661 23038140.075 10 0 59280 32400.00000 0 5393177.246 -9742698.178 22990263.382 10 0 59280 33300.00000 0 8085751.748 -8988100.899 22497861.731 10 0 59280 34200.00000 0 10741462.375 -8449569.862 21570210.098 10 0 59280 35100.00000 0 13291840.272 -8125768.021 20224983.578 10 0 59280 36000.00000 0 15670890.377 -8003281.847 18487941.416 10 0 59280 36900.00000 0 17817629.252 -8057310.775 16392456.419 10 0 59280 37800.00000 0 19678432.610 -8252849.403 13978896.354 10 0 59280 38700.00000 0 21209095.046 -8546314.732 11293866.776 10 0 59280 39600.00000 0 22376515.374 -8887551.719 8389327.758 10 0 59280 40500.00000 0 23159935.854 -9222133.919 5321599.747 10 0 59280 41400.00000 0 23551681.559 -9493862.705 2150276.607 10 0 59280 42300.00000 0 23557366.746 -9647359.206 -1062933.527 10 0 59280 43200.00000 0 23195557.580 -9630638.155 -4255416.835 10 0 59280 44100.00000 0 22496903.713 -9397552.737 -7364887.425 10 0 59280 45000.00000 0 21502774.213 -8910004.259 -10330620.328 10 0 59280 45900.00000 0 20263454.980 -8139820.045 -13094657.908 10 0 59280 46800.00000 0 18835984.065 -7070216.801 -15602963.979 10 0 59280 47700.00000 0 17281717.293 -5696784.545 -17806500.806 10 0 59280 48600.00000 0 15663728.486 -4027946.851 -19662205.940 10 0 59280 49500.00000 0 14044155.804 -2084875.848 -21133848.147 10 0 59280 50400.00000 0 12481607.988 99135.762 -22192744.386 10 0 59280 51300.00000 0 11028741.450 2479819.913 -22818323.201 10 0 59280 52200.00000 0 9730111.354 5003547.556 -22998523.330 10 0 59280 53100.00000 0 8620387.659 7609343.868 -22730020.110 10 0 59280 54000.00000 0 7723010.864 10231219.051 -22018276.064 10 0 59280 54900.00000 0 7049342.861 12800716.201 -20877415.831 10 0 59280 55800.00000 0 6598346.840 15249568.764 -19329929.326 10 0 59280 56700.00000 0 6356807.224 17512355.968 -17406210.456 10 0 59280 57600.00000 0 6300077.575 19529045.200 -15143942.048 10 0 59280 58500.00000 0 6393321.983 21247315.523 -12587340.594 10 0 59280 59400.00000 0 6593194.710 22624566.384 -9786277.050 10 0 59280 60300.00000 0 6849884.690 23629529.274 -6795292.094 10 0 59280 61200.00000 0 7109436.532 24243417.141 -3672526.186 10 0 59280 62100.00000 0 7316248.660 24460566.101 -478585.979 10 0 59280 63000.00000 0 7415642.373 24288545.348 2724630.511 10 0 59280 63900.00000 0 7356393.412 23747733.345 5875127.077 10 0 59280 64800.00000 0 7093119.764 22870380.446 8911998.177 10 0 59280 65700.00000 0 6588426.069 21699199.035 11776591.349 10 0 59280 66600.00000 0 5814715.583 20285541.380 14413621.907 10 0 59280 67500.00000 0 4755594.694 18687241.808 16772220.024 10 0 59280 68400.00000 0 3406811.973 16966212.957 18806891.900 10 0 59280 69300.00000 0 1776692.869 15185895.372 20478378.361 10 0 59280 70200.00000 0 -113948.340 13408665.147 21754396.306 10 0 59280 71100.00000 0 -2232416.701 11693305.551 22610250.429 10 0 59280 72000.00000 0 -4535241.152 10092645.811 23029304.702 10 0 59280 72900.00000 0 -6969732.003 8651463.278 23003305.366 10 0 59280 73800.00000 0 -9475929.550 7404734.609 22532549.348 10 0 59280 74700.00000 0 -11988866.011 6376307.704 21625894.347 10 0 59280 75600.00000 0 -14441050.093 5578049.255 20300609.207 10 0 59280 76500.00000 0 -16765073.925 5009503.721 18582065.691 10 0 59280 77400.00000 0 -18896236.256 4658078.880 16503275.403 10 0 59280 78300.00000 0 -20775074.392 4499751.580 14104278.351 10 0 59280 79200.00000 0 -22349700.023 4500265.703 11431392.430 10 0 59280 80100.00000 0 -23577841.159 4616773.709 8536336.129 10 0 59280 81000.00000 0 -24428503.662 4799853.981 5475239.573 10 0 59280 81900.00000 0 -24883181.042 4995819.733 2307561.755 10 0 59280 82800.00000 0 -24936559.446 5149222.071 -905065.507 10 0 59280 83700.00000 0 -24596685.938 5205440.577 -4100044.252 10 0 59280 84600.00000 0 -23884590.811 5113250.201 -7215043.369 10 0 59280 85500.00000 0 -22833378.141 4827253.436 -10189232.256 10 0 59281 0.00000 0 -21486821.919 4310071.979 -12964489.168 10 0 59281 900.00000 0 -19897526.517 3534201.424 -15486558.755 10 0 59281 1800.00000 0 -18124729.845 2483448.812 -17706133.196 10 0 59281 2700.00000 0 -16231842.625 1153887.005 -19579834.684 10 0 59281 3600.00000 0 -14283829.108 -445714.387 -21071077.780 10 0 59281 4500.00000 0 -12344541.372 -2294003.017 -22150793.625 10 0 59281 5400.00000 0 -10474120.937 -4357698.282 -22798001.207 10 0 59281 6300.00000 0 -8726578.262 -6592759.309 -23000214.313 10 0 59281 7200.00000 0 -7147652.615 -8946016.985 -22753676.526 10 0 59281 8100.00000 0 -5773042.149 -11357200.858 -22063420.499 10 0 59281 9000.00000 0 -4627077.682 -13761275.005 -20943151.453 10 0 59281 9900.00000 0 -3721894.277 -16090983.926 -19414958.611 10 0 59281 10800.00000 0 -3057133.062 -18279501.103 -17508861.761 10 0 59281 11700.00000 0 -2620182.931 -20263068.917 -15262203.389 10 0 59281 12600.00000 0 -2386948.805 -21983519.395 -12718899.915 10 0 59281 13500.00000 0 -2323110.866 -23390570.962 -9928568.107 10 0 59281 14400.00000 0 -2385818.606 -24443806.249 -6945544.998 10 0 59281 15300.00000 0 -2525745.697 -25114249.858 -3827821.569 10 0 59281 16200.00000 0 -2689416.907 -25385482.241 -635911.689 10 0 59281 17100.00000 0 -2821707.552 -25254245.455 2568321.296 10 0 59281 18000.00000 0 -2868409.414 -24730517.909 5722857.436 10 0 59281 18900.00000 0 -2778754.989 -23837057.334 8766709.814 10 0 59281 19800.00000 0 -2507794.317 -22608432.966 11641088.806 10 0 59281 20700.00000 0 -2018525.352 -21089588.839 14290519.577 10 0 59281 21600.00000 0 -1283689.505 -19333998.824 16663892.901 10 0 59281 22500.00000 0 -287158.014 -17401490.296 18715430.895 10 0 59281 23400.00000 0 975148.152 -15355826.332 20405550.924 10 0 59281 24300.00000 0 2494843.195 -13262145.598 21701613.024 10 0 59281 25200.00000 0 4251184.015 -11184364.413 22578538.167 10 0 59281 26100.00000 0 6211697.132 -9182646.787 23019286.757 10 0 59281 27000.00000 0 8333300.865 -7311045.263 23015189.004 10 0 59281 27900.00000 0 10563878.756 -5615408.495 22566120.986 10 0 59281 28800.00000 0 12844241.777 -4131640.988 21680522.537 10 0 59281 29700.00000 0 15110400.940 -2884386.369 20375255.455 10 0 59281 30600.00000 0 17296058.946 -1886188.649 18675303.009 10 0 59281 31500.00000 0 19335219.680 -1137166.909 16613314.383 10 0 59281 32400.00000 0 21164808.936 -625217.899 14229000.375 10 0 59281 33300.00000 0 22727198.076 -326739.415 11568389.506 10 0 59281 34200.00000 0 23972525.332 -207845.646 8682956.709 10 0 59281 35100.00000 0 24860716.826 -226024.766 5628639.503 10 0 59281 36000.00000 0 25363120.957 -332169.965 2464759.455 10 0 59281 36900.00000 0 25463685.325 -472898.615 -747130.727 10 0 59281 37800.00000 0 25159624.184 -593061.232 -3944451.893 10 0 59281 38700.00000 0 24461545.816 -638332.860 -7064830.718 10 0 59281 39600.00000 0 23393032.199 -557775.297 -10047333.932 10 0 59281 40500.00000 0 21989687.067 -306259.031 -12833678.575 10 0 59281 41400.00000 0 20297691.464 153360.641 -15369392.498 10 0 59281 42300.00000 0 18371927.548 848408.504 -17604900.128 10 0 59281 43200.00000 0 16273750.220 1794975.952 -19496510.267 10 0 59281 44100.00000 0 14068501.488 2996991.462 -21007284.887 10 0 59281 45000.00000 0 11822873.691 4445816.246 -22107770.606 10 0 59281 45900.00000 0 9602233.957 6120383.435 -22776577.816 10 0 59281 46800.00000 0 7468023.623 7987875.552 -23000795.958 10 0 59281 47700.00000 0 5475342.773 10004911.678 -22776237.096 10 0 59281 48600.00000 0 3670821.450 12119193.792 -22107503.843 10 0 59281 49500.00000 0 2090866.306 14271542.271 -21007881.415 10 0 59281 50400.00000 0 760354.947 16398233.912 -19499057.339 10 0 59281 51300.00000 0 -308169.381 18433543.422 -17610675.850 10 0 59281 52200.00000 0 -1114771.769 20312381.011 -15379737.268 10 0 59281 53100.00000 0 -1671859.888 21972915.058 -12849855.748 10 0 59281 54000.00000 0 -2003393.188 23359070.060 -10070391.346 10 0 59281 54900.00000 0 -2143603.692 24422795.829 -7095474.663 10 0 59281 55800.00000 0 -2135285.337 25126014.024 -3982944.198 10 0 59281 56700.00000 0 -2027726.589 25442162.136 -793217.895 10 0 59281 57600.00000 0 -1874375.419 25357272.283 2411878.762 10 0 59281 58500.00000 0 -1730336.289 24870541.798 5570305.244 10 0 59281 59400.00000 0 -1649805.116 23994373.901 8620996.315 10 0 59281 60300.00000 0 -1683550.060 22753888.641 11505028.056 10 0 59281 61200.00000 0 -1876543.389 21185925.995 14166738.131 10 0 59281 62100.00000 0 -2265842.905 19337583.574 16554780.303 10 0 59281 63000.00000 0 -2878810.734 17264349.980 18623094.702 10 0 59281 63900.00000 0 -3731743.082 15027910.972 20331777.037 10 0 59281 64800.00000 0 -4828967.751 12693718.322 21647831.986 10 0 59281 65700.00000 0 -6162447.112 10328420.450 22545797.981 10 0 59281 66600.00000 0 -7711903.782 7997259.282 23008232.690 10 0 59281 67500.00000 0 -9445465.260 5761538.873 23026050.739 10 0 59281 68400.00000 0 -11320802.822 3676268.451 22598707.388 10 0 59281 69300.00000 0 -13286719.954 1788075.748 21734224.162 10 0 59281 70200.00000 0 -15285127.245 133475.750 20449054.868 10 0 59281 71100.00000 0 -17253324.617 -1262433.995 18767792.826 10 0 59281 72000.00000 0 -19126498.571 -2386797.264 16722722.825 10 0 59281 72900.00000 0 -20840332.601 -3239307.377 14353224.001 10 0 59281 73800.00000 0 -22333623.293 -3831985.822 11705032.634 10 0 59281 74700.00000 0 -23550793.204 -4188439.175 8829376.879 10 0 59281 75600.00000 0 -24444194.895 -4342624.128 5781998.205 10 0 59281 76500.00000 0 -24976108.126 -4337171.409 2622077.146 10 0 59281 77400.00000 0 -25120344.174 -4221338.516 -588916.343 10 0 59281 78300.00000 0 -24863387.236 -4048677.674 -3788425.559 10 0 59281 79200.00000 0 -24205022.051 -3874518.350 -6914038.495 10 0 59281 80100.00000 0 -23158418.619 -3753372.353 -9904722.593 10 0 59281 81000.00000 0 -21749668.238 -3736373.588 -12702036.795 10 0 59281 81900.00000 0 -20016788.752 -3868863.585 -15251295.124 10 0 59281 82800.00000 0 -18008240.117 -4188227.986 -17502656.721 10 0 59281 83700.00000 0 -15781012.727 -4722078.455 -19412119.004 10 0 59281 84600.00000 0 -13398369.515 -5486859.598 -20942392.818 10 0 59281 85500.00000 0 -10927337.959 -6486941.858 -22063641.061 10 0 59282 0.00000 0 -8436058.649 -7714240.156 -22754065.660 10 0 59282 900.00000 0 -5991103.061 -9148375.549 -23000331.162 10 0 59282 1800.00000 0 -3654873.919 -10757372.106 -22797816.929 10 0 59282 2700.00000 0 -1483198.268 -12498860.823 -22150693.766 10 0 59282 3600.00000 0 476787.148 -14321737.439 -21071824.656 10 0 59282 4500.00000 0 2188369.541 -16168204.153 -19582492.813 10 0 59282 5400.00000 0 3626542.430 -17976107.824 -17711964.023 10 0 59282 6300.00000 0 4778785.278 -19681475.435 -15496893.354 10 0 59282 7200.00000 0 5645310.723 -21221139.446 -12980589.493 10 0 59282 8100.00000 0 6238772.494 -22535342.466 -10212152.568 10 0 59282 9000.00000 0 6583449.849 -23570212.060 -7245503.554 10 0 59282 9900.00000 0 6713946.196 -24280002.467 -4138325.388 10 0 59282 10800.00000 0 6673459.766 -24629010.394 -950937.173 10 0 59282 11700.00000 0 6511701.627 -24593086.135 2254876.188 10 0 59282 12600.00000 0 6282550.479 -24160678.501 5417056.062 10 0 59282 13500.00000 0 6041544.030 -23333371.757 8474461.114 10 0 59282 14400.00000 0 5843312.802 -22125893.846 11368035.074 10 0 59282 15300.00000 0 5739063.899 -20565597.029 14041929.747 10 0 59282 16200.00000 0 5774219.583 -18691433.539 16444563.216 10 0 59282 17100.00000 0 5986308.627 -16552469.188 18529594.642 10 0 59282 18000.00000 0 6403197.604 -14205996.378 20256798.771 10 0 59282 18900.00000 0 7041735.193 -11715323.786 21592825.280 10 0 59282 19800.00000 0 7906865.673 -9147332.625 22511830.098 10 0 59282 20700.00000 0 8991248.715 -6569898.655 22995967.899 10 0 59282 21600.00000 0 10275402.194 -4049284.221 23035737.199 10 0 59282 22500.00000 0 11728363.646 -1647605.784 22630171.671 10 0 59282 23400.00000 0 13308845.033 579520.340 21786873.578 10 0 59282 24300.00000 0 14966835.414 2585058.334 20521887.623 10 0 59282 25200.00000 0 16645587.646 4332274.255 18859415.918 10 0 59282 26100.00000 0 18283909.074 5796027.387 16831377.469 10 0 59282 27000.00000 0 19818663.079 6963577.650 14476818.221 10 0 59282 27900.00000 0 21187378.715 7834874.667 11841180.527 10 0 59282 28800.00000 0 22330860.168 8422315.140 8975443.899 10 0 59282 29700.00000 0 23195686.609 8749977.338 5935151.674 10 0 59282 30600.00000 0 23736496.542 8852363.551 2779341.089 10 0 59282 31500.00000 0 23917958.712 8772702.430 -430603.123 10 0 59282 32400.00000 0 23716344.125 8560882.401 -3632149.280 10 0 59282 33300.00000 0 23120630.045 8271103.711 -6762849.337 10 0 59282 34200.00000 0 22133086.462 7959349.448 -9761574.050 10 0 59282 35100.00000 0 20769317.609 7680784.295 -12569726.756 10 0 59282 36000.00000 0 19057754.515 7487193.521 -15132409.943 10 0 59282 36900.00000 0 17038618.530 7424573.304 -17399519.524 10 0 59282 37800.00000 0 14762398.700 7530977.193 -19326743.345 10 0 59282 38700.00000 0 12287907.046 7834712.468 -20876442.669 10 0 59282 39600.00000 0 9679994.212 8352964.846 -22018397.992 10 0 59282 40500.00000 0 7007022.413 9090911.294 -22730403.835 10 0 59282 41400.00000 0 4338202.891 10041359.335 -22998700.635 10 0 59282 42300.00000 0 1740910.692 11184928.259 -22818235.527 10 0 59282 43200.00000 0 -721910.129 12490764.172 -22192747.669 10 0 59282 44100.00000 0 -2994142.023 13917757.809 -21134677.538 10 0 59282 45000.00000 0 -5028590.441 15416212.453 -19664903.352 10 0 59282 45900.00000 0 -6788694.887 16929890.307 -17812311.323 10 0 59282 46800.00000 0 -8249784.997 18398349.768 -15613209.725 10 0 59282 47700.00000 0 -9399831.700 19759474.017 -13110599.867 10 0 59282 48600.00000 0 -10239665.234 20952083.788 -10353319.704 10 0 59282 49500.00000 0 -10782654.419 21918524.063 -7395078.096 10 0 59282 50400.00000 0 -11053864.127 22607116.127 -4293399.725 10 0 59282 51300.00000 0 -11088729.760 22974372.677 -1108502.035 10 0 59282 52200.00000 0 -10931307.350 22986884.075 2097873.549 10 0 59282 53100.00000 0 -10632175.133 22622798.110 5263653.201 10 0 59282 54000.00000 0 -10246076.438 21872832.881 8327622.364 10 0 59282 54900.00000 0 -9829403.741 20740781.997 11230595.210 10 0 59282 55800.00000 0 -9437629.633 19243492.380 13916540.369 10 0 59282 56700.00000 0 -9122791.961 17410316.571 16333642.772 10 0 59282 57600.00000 0 -8931137.562 15282062.737 18435282.950 10 0 59282 58500.00000 0 -8901022.034 12909485.813 20180916.810 10 0 59282 59400.00000 0 -9061152.175 10351381.480 21536840.908 10 0 59282 60300.00000 0 -9429243.606 7672360.352 22476830.276 10 0 59282 61200.00000 0 -10011149.153 4940392.492 22982637.883 10 0 59282 62100.00000 0 -10800494.553 2224221.359 23044347.066 10 0 59282 63000.00000 0 -11778837.608 -409248.513 22660570.442 10 0 59282 63900.00000 0 -12916345.760 -2897484.404 21838491.097 10 0 59282 64800.00000 0 -14172966.061 -5184676.263 20593744.221 10 0 59282 65700.00000 0 -15500041.347 -7223809.696 18950139.804 10 0 59282 66600.00000 0 -16842307.852 -8978375.949 16939229.644 10 0 59282 67500.00000 0 -18140193.314 -10423648.014 14599724.561 10 0 59282 68400.00000 0 -19332321.493 -11547469.228 11976770.594 10 0 59282 69300.00000 0 -20358119.453 -12350520.364 9121095.808 10 0 59282 70200.00000 0 -21160418.637 -12846052.655 6088042.290 10 0 59282 71100.00000 0 -21687939.843 -13059096.551 2936500.592 10 0 59282 72000.00000 0 -21897556.040 -13025178.125 -272233.326 10 0 59282 72900.00000 0 -21756235.385 -12788596.423 -3475656.466 10 0 59282 73800.00000 0 -21242579.671 -12400334.241 -6611288.447 10 0 59282 74700.00000 0 -20347890.175 -11915691.111 -9617907.008 10 0 59282 75600.00000 0 -19076712.919 -11391739.898 -12436763.435 10 0 59282 76500.00000 0 -17446837.579 -10884716.545 -15012752.049 10 0 59282 77400.00000 0 -15488748.045 -10447455.814 -17295508.595 10 0 59282 78300.00000 0 -13244546.368 -10126984.140 -19240413.991 10 0 59282 79200.00000 0 -10766394.765 -9962373.979 -20809482.033 10 0 59282 80100.00000 0 -8114541.317 -9982952.610 -21972112.289 10 0 59282 81000.00000 0 -5355012.943 -10206942.780 -22705692.659 10 0 59282 81900.00000 0 -2557073.323 -10640593.652 -22996039.552 10 0 59282 82800.00000 0 209446.543 -11277839.028 -22837667.266 10 0 59282 83700.00000 0 2876832.527 -12100496.869 -22233882.064 10 0 59282 84600.00000 0 5382073.589 -13079000.682 -21196700.148 10 0 59282 85500.00000 0 7669241.870 -14173630.492 -19746592.511 10 0 59283 0.00000 0 9691567.998 -15336189.769 -17912063.247 10 0 59283 900.00000 0 11413126.309 -16512055.954 -15729070.858 10 0 59283 1800.00000 0 12810062.116 -17642516.487 -13240306.189 10 0 59283 2700.00000 0 13871311.518 -18667290.564 -10494341.705 10 0 59283 3600.00000 0 14598788.284 -19527129.820 -7544670.709 10 0 59283 4500.00000 0 15007032.270 -20166387.789 -4448656.136 10 0 59283 5400.00000 0 15122338.195 -20535450.411 -1266410.283 10 0 59283 6300.00000 0 14981404.316 -20592926.022 1940372.268 10 0 59283 7200.00000 0 14629560.441 -20307503.909 5109605.676 10 0 59283 8100.00000 0 14118651.727 -19659404.809 8180005.059 10 0 59283 9000.00000 0 13504668.337 -18641363.970 11092257.583 10 0 59283 9900.00000 0 12845220.926 -17259106.982 13790150.843 10 0 59283 10800.00000 0 12196967.553 -15531299.449 16221638.323 10 0 59283 11700.00000 0 11613098.983 -13488973.081 18339823.181 10 0 59283 12600.00000 0 11140986.398 -11174452.002 20103843.292 10 0 59283 13500.00000 0 10820088.456 -8639823.038 21479642.471 10 0 59283 14400.00000 0 10680203.826 -5945011.900 22440614.824 10 0 59283 15300.00000 0 10740141.158 -3155542.959 22968111.217 10 0 59283 16200.00000 0 11006861.513 -340072.761 23051799.084 10 0 59283 17100.00000 0 11475129.274 2432203.475 22689868.985 10 0 59283 18000.00000 0 12127687.012 5094167.766 21889083.591 10 0 59283 18900.00000 0 12935948.642 7583311.910 20664667.156 10 0 59283 19800.00000 0 13861184.085 9844083.843 19040035.975 10 0 59283 20700.00000 0 14856148.370 11829951.672 17046372.922 10 0 59283 21600.00000 0 15867089.494 13505100.315 14722051.871 10 0 59283 22500.00000 0 16836053.150 14845689.906 12111920.583 10 0 59283 23400.00000 0 17703389.217 15840622.577 9266453.603 10 0 59283 24300.00000 0 18410355.590 16491784.253 6240789.536 10 0 59283 25200.00000 0 18901709.666 16813749.751 3093669.902 10 0 59283 26100.00000 0 19128177.260 16832962.015 -113700.572 10 0 59283 27000.00000 0 19048692.896 16586418.812 -3318850.087 10 0 59283 27900.00000 0 18632314.248 16119921.569 -6459268.429 10 0 59283 28800.00000 0 17859726.815 15485960.240 -9473642.745 10 0 59283 29700.00000 0 16724272.075 14741324.349 -12303074.543 10 0 59283 30600.00000 0 15232452.610 13944542.655 -14892252.047 10 0 59283 31500.00000 0 13403890.351 13153261.708 -17190552.672 10 0 59283 32400.00000 0 11270737.674 12421676.520 -19153052.000 10 0 59283 33300.00000 0 8876564.947 11798124.397 -20741417.728 10 0 59283 34200.00000 0 6274770.899 11322945.829 -21924669.651 10 0 59283 35100.00000 0 3526582.735 11026704.571 -22679789.991 10 0 59283 36000.00000 0 698730.588 10928843.224 -22992171.843 10 0 59283 36900.00000 0 -2139105.249 11036831.415 -22855897.119 10 0 59283 37800.00000 0 -4916966.514 11345842.205 -22273839.316 10 0 59283 38700.00000 0 -7567296.150 11838969.302 -21257590.118 10 0 59283 39600.00000 0 -10027512.083 12487974.338 -19827212.649 10 0 59283 40500.00000 0 -12242368.396 13254530.755 -18010827.733 10 0 59283 41400.00000 0 -14166006.282 14091909.733 -15844042.831 10 0 59283 42300.00000 0 -15763610.661 14947035.029 -13369236.461 10 0 59283 43200.00000 0 -17012605.605 15762818.266 -10634713.562 10 0 59283 44100.00000 0 -17903341.453 16480674.844 -7693749.643 10 0 59283 45000.00000 0 -18439248.006 17043113.512 -4603543.519 10 0 59283 45900.00000 0 -18636450.804 17396290.177 -1424099.887 10 0 59283 46800.00000 0 -18522869.782 17492418.653 1782936.027 10 0 59283 47700.00000 0 -18136840.992 17291937.609 4955468.921 10 0 59283 48600.00000 0 -17525321.535 16765343.718 8032146.159 10 0 59283 49500.00000 0 -16741754.651 15894615.311 10953530.476 10 0 59283 50400.00000 0 -15843685.310 14674168.108 13663230.996 10 0 59283 51300.00000 0 -14890226.293 13111304.066 16108972.259 10 0 59283 52200.00000 0 -13939480.231 11226135.147 18243582.459 10 0 59283 53100.00000 0 -13046024.261 9050985.270 20025883.690 10 0 59283 54000.00000 0 -12258560.906 6629294.628 21421469.077 10 0 59283 54900.00000 0 -11617831.653 4014070.493 22403353.601 10 0 59283 55800.00000 0 -11154878.871 1265946.829 22952487.529 10 0 59283 56700.00000 0 -10889727.481 -1549069.499 23058123.564 10 0 59283 57600.00000 0 -10830540.914 -4362075.471 22718031.002 10 0 59283 58500.00000 0 -10973286.764 -7103872.008 21938552.494 10 0 59283 59400.00000 0 -11301927.033 -9707582.579 20734501.323 10 0 59283 60300.00000 0 -11789126.585 -12111184.230 19128899.597 10 0 59283 61200.00000 0 -12397452.210 -14259847.712 17152560.323 10 0 59283 62100.00000 0 -13081014.374 -16107990.516 14843519.034 10 0 59283 63000.00000 0 -13787484.984 -17620957.546 12246323.391 10 0 59283 63900.00000 0 -14460408.266 -18776258.644 9411192.201 10 0 59283 64800.00000 0 -15041708.769 -19564310.085 6393058.038 10 0 59283 65700.00000 0 -15474291.190 -19988647.312 3250510.538 10 0 59283 66600.00000 0 -15704621.813 -20065598.183 44660.112 10 0 59283 67500.00000 0 -15685181.071 -19823428.900 -3162055.932 10 0 59283 68400.00000 0 -15376681.269 -19300997.373 -6307100.985 10 0 59283 69300.00000 0 -14749952.845 -18545970.258 -9329075.139 10 0 59283 70200.00000 0 -13787416.176 -17612679.114 -12168933.701 10 0 59283 71100.00000 0 -12484073.492 -16559707.154 -14771162.315 10 0 59283 72000.00000 0 -10847976.053 -15447310.114 -17084883.420 10 0 59283 72900.00000 0 -8900144.448 -14334782.275 -19064870.337 10 0 59283 73800.00000 0 -6673943.560 -13277881.077 -20672447.330 10 0 59283 74700.00000 0 -4213937.594 -12326421.289 -21876256.563 10 0 59283 75600.00000 0 -1574272.955 -11522142.066 -22652876.128 10 0 59283 76500.00000 0 1183342.862 -10896938.113 -22987276.710 10 0 59283 77400.00000 0 3991980.818 -10471530.138 -22873108.110 10 0 59283 78300.00000 0 6782049.487 -10254630.332 -22312810.731 10 0 59283 79200.00000 0 9483965.911 -10242637.102 -21317550.874 10 0 59283 80100.00000 0 12030825.815 -10419870.252 -19906982.437 10 0 59283 81000.00000 0 14360961.496 -10759334.555 -18108841.227 10 0 59283 81900.00000 0 16420281.008 -11223977.117 -15958381.372 10 0 59283 82800.00000 0 18164291.936 -11768383.054 -13497666.504 10 0 59283 83700.00000 0 19559726.985 -12340835.624 -10774731.071 10 0 59283 84600.00000 0 20585705.835 -12885652.004 -7842629.484 10 0 59283 85500.00000 0 21234387.398 -13345694.692 -4758392.863 99